{"data":{"norad_id":57183,"intl_designator":"2023-091T","name":"2023-091T","alt_names":[],"object_type":"PAYLOAD","status":"ACTIVE","operator":null,"country":"CIS","launch_date":"2023-06-27","launch_site_code":"VOSTO","launch_vehicle":null,"mission":null,"orbit_class":"UNKNOWN","rcs_meters":null,"size_class":null,"mass_kg":null,"dimensions":null,"purposes":[],"wikipedia_slug":null,"has_3d_model":false,"image_url":null,"decayed_at":null,"tle_current":{"epoch":"2026-05-25T03:29:35.086272Z","epoch_age_seconds":62582,"freshness":"FRESH","line1":"1 57183U 23091T   26145.14554498  .00004043  00000+0  19770-3 0  9994","line2":"2 57183  97.5102 203.9172 0011272 182.3664 177.7518 15.18742856160478","mean_motion":15.18742856,"eccentricity":0.0011272,"inclination_deg":97.5102,"raan_deg":203.9172,"arg_perigee_deg":182.3664,"mean_anomaly_deg":177.7518,"bstar":0.0001977,"rev_number":16047,"period_min":94.815260813316,"perigee_km":501.8750110618,"apogee_km":517.40281307797,"semimajor_km":6887.7759120699,"source":"CELESTRAK","updated_at":"2026-05-25T13:37:59.910047Z"}}}